Weather History for Springfield, CO

Change the Weather History Date:

Wednesday, February 19, 2014

  Actual Average Record
Temperature  
Mean Temperature 50 °F -  
Max Temperature 67 °F 51 °F 73 °F (2011)
Min Temperature 32 °F 21 °F 5 °F (2006)
Degree Days  
Heating Degree Days 15 29  
Month to date heating degree days 609 580  
Since 1 July heating degree days 3729 3756  
Cooling Degree Days 0 0  
Month to date cooling degree days 0 0  
Year to date cooling degree days 0 0  
Moisture  
Dew Point 18 °F    
Average Humidity 37    
Maximum Humidity 61    
Minimum Humidity 12    
Precipitation  
Precipitation 0.00 in 0.01 in 0.13 in (2003)
Month to date precipitation 0.11 0.32  
Year to date precipitation 0.31 0.69  
Sea Level Pressure  
Sea Level Pressure 29.62 in    
Wind  
Wind Speed 14 mph (SW)    
Max Wind Speed 44 mph    
Max Gust Speed 57 mph    
T = Trace of Precipitation, MM = Missing Value Source: NWS Daily Summary

Daily Weather History Graph

Daily Weather History Graph

Search for Another Location

Airport:

Trip Planner

Search our weather history database for the weather conditions in past years. The results will help you decide how hot, cold, wet, or windy it might be!

Date:

Astronomy

Feb. 19, 2014 Rise Set
Actual Time 6:34 AM MST 5:34 PM MST
Civil Twilight 6:08 AM MST 6:00 PM MST
Nautical Twilight 5:37 AM MST 6:31 PM MST
Astronomical Twilight 5:07 AM MST 7:01 PM MST
Moon 10:22 PM MST (2/19) 8:48 AM MST (2/19)
Length of Visible Light 11h 52m
Length of Day
10h 59m
Waning Gibbous, 79% of the Moon is Illuminated
Feb 19
Waning Gibbous
Feb 22
Last Quarter
Mar 1
New
Mar 8
First Quarter
Mar 16
Full

Hourly Weather History & Observations

Time (MST) Temp. Windchill Dew Point Humidity Pressure Visibility Wind Dir Wind Speed Gust Speed Precip Events Conditions
12:56 AM 33.1 °F 28.7 °F 19.0 °F 56% 29.94 in - SSW 4.6 mph - N/A   Unknown
1:56 AM 33.1 °F 27.7 °F 19.9 °F 59% 29.91 in - SW 5.8 mph - N/A   Unknown
2:56 AM 34.0 °F 28.8 °F 21.0 °F 59% 29.88 in - SW 5.8 mph - N/A   Unknown
3:56 AM 35.1 °F 27.9 °F 21.0 °F 57% 29.88 in - SW 9.2 mph - N/A   Unknown
4:56 AM 37.0 °F 31.0 °F 19.9 °F 50% 29.86 in - SSW 8.1 mph - N/A   Unknown
5:56 AM 37.0 °F 31.0 °F 19.9 °F 50% 29.88 in - SSW 8.1 mph - N/A   Unknown
6:56 AM 37.9 °F 29.2 °F 19.9 °F 48% 29.86 in - SSW 15.0 mph - N/A   Unknown
7:56 AM 41.0 °F 32.5 °F 19.9 °F 43% 29.84 in - South 17.3 mph - N/A   Unknown
8:56 AM 45.0 °F 36.9 °F 17.1 °F 33% 29.82 in - South 20.7 mph 26.5 mph N/A   Unknown
9:56 AM 46.0 °F 37.6 °F 16.0 °F 30% 29.77 in - South 24.2 mph - N/A   Unknown
10:56 AM 53.1 °F - 16.0 °F 23% 29.69 in - South 24.2 mph 34.5 mph N/A   Unknown
11:56 AM 54.0 °F - 16.0 °F 22% 29.62 in - SSW 20.7 mph 32.2 mph N/A   Unknown
12:56 PM 55.9 °F - 17.1 °F 22% 29.55 in - Variable 4.6 mph 26.5 mph N/A   Unknown
1:56 PM 63.0 °F - 16.0 °F 16% 29.48 in - SSW 18.4 mph 27.6 mph N/A   Unknown
2:56 PM 66.0 °F - 14.0 °F 13% 29.43 in - South 15.0 mph 20.7 mph N/A   Unknown
3:56 PM 66.9 °F - 12.9 °F 12% 29.41 in - SW 12.7 mph - N/A   Unknown
4:56 PM 63.0 °F - 14.0 °F 15% 29.39 in - SSW 10.4 mph - N/A   Unknown
5:56 PM 54.0 °F - 16.0 °F 22% 29.40 in - South 11.5 mph - N/A   Unknown
6:56 PM 48.0 °F - 16.0 °F 28% 29.41 in - WSW 8.1 mph - N/A   Unknown
7:56 PM 50.0 °F - 15.1 °F 25% 29.39 in - West 11.5 mph - N/A   Unknown
8:56 PM 52.0 °F - 15.1 °F 23% 29.37 in - West 10.4 mph - N/A   Unknown
9:56 PM 50.0 °F - 16.0 °F 26% 29.36 in - WSW 10.4 mph - N/A   Unknown
10:56 PM 55.0 °F - 26.1 °F 33% 29.32 in - West 18.4 mph 27.6 mph N/A   Unknown
11:56 PM 46.9 °F - 28.0 °F 48% 29.39 in - NW 36.8 mph 56.4 mph N/A   Unknown